EW2457 Weather Reports


time (UTC)temp
C
wind
direction
speed
KPH
gust
KPH
rain 1hr
cm
rain 24hr
cm
rain mn
cm
humidity
%
barometer
mb
20260503211500 17 305 3.2 8.0 0.00 0.00 0.00 66 1011.7
20260503210104 17 273 4.8 9.7 0.00 0.00 0.00 67 1011.7
20260503204600 16 41 1.6 11.3 0.00 0.00 0.00 69 1011.7
20260503203100 16 270 3.2 8.0 0.00 0.00 0.00 69 1011.8
20260503201558 16 13 1.6 11.3 0.00 0.00 0.00 69 1011.8
20260503200059 16 145 1.6 6.4 0.00 0.00 0.00 69 1011.9
20260503194600 16 210 1.6 11.3 0.00 0.00 0.00 69 1011.9
20260503194526 16 79 1.6 11.3 0.00 0.00 0.00 69 1011.9
20260503193056 16 285 3.2 11.3 0.00 0.00 0.00 68 1012.1
20260503191555 17 228 3.2 9.7 0.00 0.00 0.00 66 1012.0
20260503190054 17 170 1.6 6.4 0.00 0.00 0.00 66 1012.0
20260503184551 16 141 3.2 9.7 0.00 0.00 0.00 67 1012.0
20260503183050 16 45 1.6 4.8 0.00 0.00 0.00 70 1011.9
20260503181546 15 30 3.2 8.0 0.00 0.00 0.00 70 1012.0
20260503180057 16 149 1.6 6.4 0.00 0.00 0.00 70 1011.8
20260503174543 15 8 1.6 8.0 0.00 0.00 0.00 71 1011.9
20260503173040 15 342 0.0 4.8 0.00 0.00 0.00 73 1011.9
20260503171545 14 349 1.6 6.4 0.00 0.00 0.00 73 1011.8
20260503081551 12 70 1.6 4.8 0.00 0.00 0.00 78 1010.7
20260503071604 12 67 0.0 3.2 0.00 0.00 0.00 78 1010.7
20260503054555 12 163 0.0 4.8 0.00 0.00 0.00 78 1010.9
20260503053042 12 195 1.6 4.8 0.00 0.00 0.00 78 1011.1
20260503051542 12 12 1.6 6.4 0.00 0.00 0.00 78 1011.1
20260503050042 12 125 1.6 4.8 0.00 0.00 0.00 78 1011.1
20260503044541 12 239 0.0 6.4 0.00 0.00 0.00 78 1011.1
20260503043040 12 355 1.6 4.8 0.00 0.00 0.00 78 1010.9
20260503041543 12 206 1.6 8.0 0.00 0.00 0.00 78 1010.9
20260503040050 12 107 0.0 3.2 0.00 0.00 0.00 77 1010.8
20260503034538 12 205 0.0 4.8 0.00 0.00 0.00 77 1010.8
20260503033040 12 267 1.6 6.4 0.00 0.00 0.00 77 1010.6
20260503031541 12 18 1.6 6.4 0.00 0.00 0.00 77 1010.3
20260503030046 12 252 0.0 3.2 0.00 0.00 0.00 77 1010.2
20260503024535 12 58 0.0 6.4 0.00 0.00 0.00 77 1010.2
20260503023035 12 350 1.6 6.4 0.00 0.00 0.00 77 1010.1
20260503021534 12 118 0.0 4.8 0.00 0.00 0.00 77 1010.1
20260503020035 12 352 0.0 6.4 0.00 0.00 0.00 76 1010.3
20260503014531 13 195 1.6 11.3 0.00 0.00 0.00 76 1010.3
20260503013036 13 108 1.6 6.4 0.00 0.00 0.00 75 1010.4
20260503011530 13 60 1.6 6.4 0.00 0.00 0.00 74 1010.5
20260503010032 13 6 1.6 4.8 0.00 0.00 0.00 74 1010.4
20260503004527 14 354 1.6 4.8 0.00 0.00 0.00 73 1010.5
20260503003026 14 43 1.6 8.0 0.00 0.00 0.00 73 1010.6
20260503001524 14 245 1.6 4.8 0.00 0.00 0.00 72 1010.7
20260503000023 15 30 0.0 6.4 0.00 0.00 0.00 72 1010.7
20260502234528 15 23 1.6 6.4 0.00 0.00 0.00 71 1010.8
20260502233019 14 70 1.6 9.7 0.00 0.00 0.00 71 1011.0
20260502231518 15 295 3.2 9.7 0.00 0.00 0.00 71 1011.2
20260502230023 15 34 3.2 6.4 0.00 0.00 0.00 71 1011.3
20260502224516 15 70 1.6 6.4 0.00 0.00 0.00 71 1011.6
20260502223017 15 47 1.6 8.0 0.00 0.00 0.00 73 1011.8
20260502221514 15 85 3.2 8.0 0.00 0.00 0.00 72 1012.0
20260502220013 14 312 3.2 8.0 0.00 0.00 0.00 72 1012.2
20260502214512 14 342 3.2 9.7 0.00 0.00 0.00 72 1012.3
20260502213012 14 239 4.8 17.7 0.00 0.00 0.00 72 1012.2